FW1245 Weather Reports


time (UTC)temp
F
wind
direction
speed
knots
gust
knots
rain 1hr
in
rain 24hr
in
rain mn
in
humidity
%
barometer
mb
20260506202016 46 0.0 0.9 0.07 0.87 0.84 98 1005.5
20260506201515 46 0.0 2.6 0.08 0.95 0.84 98 1005.5
20260506201016 46 0.0 1.7 0.09 1.10 0.84 98 1005.6
20260506200515 46 0.0 0.9 0.10 1.11 0.84 98 1005.6
20260506200015 46 68 0.9 2.6 0.11 1.11 0.84 98 1005.5
20260506195515 46 0.0 1.7 0.14 1.11 0.84 98 1005.6
20260506195015 46 68 1.7 3.5 0.14 1.10 0.83 98 1005.7
20260506194536 46 45 2.6 4.3 0.15 1.10 0.83 98 1005.7
20260506194015 46 45 1.7 4.3 0.15 1.09 0.82 98 1005.4
20260506193556 46 90 0.9 2.6 0.15 1.08 0.81 97 1005.5
20260506193015 47 90 2.6 6.1 0.15 1.07 0.80 97 1005.3
20260506192515 47 68 2.6 5.2 0.13 1.05 0.78 97 1005.3
20260506192016 48 68 2.6 4.3 0.13 1.04 0.77 97 1005.3
20260506191516 48 68 1.7 7.8 0.13 1.03 0.76 97 1005.3
20260506191015 49 90 0.9 4.3 0.12 1.02 0.75 98 1005.1
20260506190518 49 90 0.9 2.6 0.11 1.01 0.74 97 1005.2
20260506190018 49 113 0.9 2.6 0.11 1.00 0.73 97 1005.3
20260506185517 49 113 1.7 3.5 0.08 0.97 0.70 97 1005.3
20260506185017 49 113 3.5 6.1 0.07 0.96 0.69 97 1005.2
20260506184517 50 0 0.9 3.5 0.07 0.95 0.68 96 1005.4
20260506184017 51 0 1.7 4.3 0.07 0.94 0.67 96 1005.4
20260506183517 52 0 1.7 6.1 0.07 0.93 0.66 97 1005.2
20260506183017 52 68 0.9 4.3 0.07 0.92 0.65 97 1005.3
20260506182517 53 68 2.6 7.0 0.08 0.92 0.65 95 1005.2
20260506182017 54 0 0.9 3.5 0.07 0.91 0.64 95 1005.4
20260506181517 55 293 0.9 1.7 0.08 0.90 0.63 96 1005.5
20260506181018 56 293 0.9 5.2 0.09 0.90 0.63 98 1005.5
20260506180517 56 293 1.7 6.1 0.12 0.90 0.63 98 1005.4
20260506180017 56 45 2.6 7.0 0.13 0.89 0.62 99 1005.4
20260506175517 56 45 1.7 5.2 0.15 0.89 0.62 98 1005.5
20260506175017 56 45 1.7 6.1 0.17 0.89 0.62 99 1005.5
20260506174517 56 45 0.9 7.8 0.19 0.88 0.61 99 1005.4
20260506174017 56 338 0.9 7.0 0.21 0.87 0.60 99 1005.5
20260506173517 56 270 1.7 7.8 0.21 0.86 0.59 98 1005.6
20260506173017 56 0.0 1.7 0.21 0.85 0.58 98 1005.7
20260506172537 56 45 1.7 4.3 0.20 0.84 0.57 98 1005.8
20260506172037 56 45 2.6 7.8 0.21 0.84 0.57 97 1006.0
20260506171517 57 0 0.9 3.5 0.21 0.82 0.55 98 1006.4
20260506171017 57 315 0.9 5.2 0.21 0.81 0.54 98 1006.2
20260506170517 57 225 1.7 7.8 0.19 0.78 0.51 98 1006.3
20260506170017 57 90 0.9 13.0 0.18 0.76 0.49 98 1006.4
20260506165517 57 225 0.9 13.0 0.17 0.74 0.47 98 1006.6
20260506165015 57 0.0 1.7 0.17 0.72 0.45 98 1006.6
20260506164517 57 23 0.9 2.6 0.15 0.69 0.42 99 1006.5
20260506164017 57 23 1.7 10.4 0.13 0.66 0.39 98 1006.5
20260506163517 57 338 1.7 10.4 0.13 0.65 0.38 98 1006.6
20260506163017 57 45 0.9 2.6 0.13 0.64 0.37 99 1006.7
20260506162618 57 0.0 1.7 0.15 0.64 0.37 99 1006.6
20260506162057 57 0.0 1.7 0.15 0.63 0.36 99 1006.5
20260506161517 57 0.0 1.7 0.14 0.61 0.34 99 1006.6
20260506161017 57 45 0.9 2.6 0.14 0.60 0.33 99 1006.7
20260506160517 57 45 0.9 3.5 0.13 0.59 0.32 99 1006.9
20260506160038 57 0.0 0.0 0.13 0.58 0.31 99 1006.8
20260506155517 57 0.0 0.0 0.13 0.57 0.30 99 1007.0
20260506155017 57 0.0 0.0 0.12 0.55 0.28 99 1007.0
20260506154517 57 0.0 0.0 0.12 0.54 0.27 98 1007.0
20260506154017 57 0.0 0.9 0.12 0.53 0.26 99 1006.9
20260506153517 57 45 0.9 2.6 0.12 0.52 0.25 98 1007.1
20260506153017 57 45 0.9 2.6 0.11 0.51 0.24 99 1007.1
20260506152517 57 45 1.7 4.3 0.10 0.49 0.22 99 1007.1
20260506152017 57 0.0 1.7 0.10 0.48 0.21 99 1007.3
20260506151517 57 0.0 1.7 0.10 0.47 0.20 98 1007.5
20260506151017 57 248 0.9 3.5 0.09 0.46 0.19 99 1007.6
20260506150517 57 0.0 1.7 0.10 0.46 0.19 99 1007.6
20260506150037 57 0.0 2.6 0.09 0.45 0.18 98 1007.7
20260506145517 57 0.0 0.0 0.09 0.44 0.17 98 1007.7
20260506145017 57 0.0 0.0 0.09 0.43 0.16 99 1007.8
20260506144517 57 0.0 0.0 0.09 0.42 0.15 99 1007.9
20260506144017 57 0.0 0.0 0.08 0.41 0.14 99 1008.0
20260506143517 57 0.0 0.0 0.07 0.40 0.13 99 1007.9
20260506143037 57 0.0 0.0 0.08 0.40 0.13 99 1007.9
20260506142517 57 0.0 0.0 0.07 0.39 0.12 99 1007.9
20260506142017 57 0.0 0.9 0.07 0.38 0.11 99 1008.1
20260506141517 57 225 1.7 6.1 0.06 0.37 0.10 99 1008.1
20260506141017 57 0.0 0.9 0.06 0.37 0.10 99 1007.9
20260506140517 57 293 0.9 3.5 0.05 0.36 0.09 99 1008.0
20260506140018 57 0.0 0.9 0.06 0.36 0.09 99 1007.9
20260506135517 56 315 1.7 4.3 0.05 0.35 0.08 99 1007.9
20260506135017 57 0.0 0.0 0.04 0.34 0.07 100 1007.9
20260506134517 57 0.0 0.9 0.03 0.33 0.06 100 1007.7
20260506134017 57 0.0 1.7 0.04 0.33 0.06 100 1007.8
20260506133517 57 0 0.9 1.7 0.04 0.33 0.06 100 1007.8
20260506133017 57 0.0 1.7 0.03 0.32 0.05 100 1007.7
20260506132517 57 0.0 1.7 0.03 0.32 0.05 100 1007.6
20260506132017 57 0.0 0.9 0.02 0.31 0.04 100 1007.7
20260506131537 56 0 0.9 2.6 0.02 0.31 0.04 100 1007.6
20260506131017 56 23 0.9 1.7 0.02 0.31 0.04 100 1007.7
20260506130537 56 45 0.9 2.6 0.02 0.31 0.04 100 1007.7
20260506130017 56 45 0.9 2.6 0.01 0.30 0.03 100 1007.9
20260506125517 56 0.0 0.0 0.01 0.30 0.03 100 1007.9
20260506125037 56 0.0 0.9 0.01 0.30 0.03 100 1007.9
20260506124517 56 0.0 1.7 0.01 0.30 0.03 100 1008.1
20260506124017 56 0.0 3.5 0.00 0.29 0.02 100 1008.2
20260506123517 56 0.0 3.5 0.00 0.29 0.02 100 1008.1
20260506123037 56 0.0 2.6 0.00 0.29 0.02 100 1008.2
20260506122517 55 0.0 0.9 0.00 0.29 0.02 100 1008.1
20260506122017 55 0.0 1.7 0.00 0.29 0.02 100 1008.1
20260506121517 55 0.0 0.0 0.00 0.29 0.02 100 1008.0
20260506121017 55 0.0 0.9 0.00 0.29 0.02 100 1007.9
20260506120537 54 0.0 0.9 0.00 0.29 0.02 100 1007.6
20260506120017 54 135 0.9 2.6 0.00 0.29 0.02 100 1007.7
20260506115517 54 0.0 0.9 0.00 0.29 0.02 100 1007.9
20260506115057 54 0.0 0.9 0.00 0.29 0.02 100 1007.8
20260506114517 54 0.0 1.7 0.00 0.29 0.02 100 1007.7
20260506114037 54 0.0 1.7 0.00 0.29 0.02 100 1007.9
20260506113537 54 0.0 1.7 0.00 0.29 0.02 100 1008.0
20260506113017 54 0.0 1.7 0.00 0.29 0.02 100 1007.9
20260506112516 54 0.0 0.9 0.00 0.29 0.02 100 1007.9
20260506112017 53 0.0 0.9 0.00 0.29 0.02 100 1008.0
20260506111517 53 0.0 0.0 0.00 0.29 0.02 100 1008.1
20260506111017 53 0.0 1.7 0.00 0.29 0.02 100 1008.0
20260506110517 53 0.0 1.7 0.00 0.29 0.02 100 1008.1
20260506110016 53 0.0 0.0 0.00 0.29 0.02 100 1007.9
20260506105517 53 0.0 0.0 0.00 0.29 0.02 100 1007.8
20260506105016 53 0.0 0.0 0.00 0.29 0.02 99 1007.7
20260506104516 53 0.0 0.0 0.00 0.29 0.02 100 1007.6
20260506104037 53 0.0 0.9 0.00 0.29 0.02 100 1007.8
20260506103516 52 0.0 0.9 0.00 0.29 0.02 100 1007.8
20260506103017 52 0.0 0.0 0.00 0.29 0.02 99 1007.8
20260506102517 52 0.0 0.0 0.00 0.29 0.02 99 1007.5
20260506102016 52 0.0 0.0 0.00 0.29 0.02 99 1007.8
20260506101516 52 0.0 0.0 0.00 0.29 0.02 99 1007.8
20260506101017 52 0.0 0.0 0.00 0.29 0.02 99 1007.8
20260506100516 52 0.0 0.0 0.00 0.29 0.02 99 1007.7
20260506100017 52 135 0.9 2.6 0.00 0.29 0.02 99 1007.6
20260506095517 52 0.0 0.9 0.00 0.29 0.02 99 1007.8
20260506095016 52 135 0.9 1.7 0.00 0.29 0.02 99 1007.8
20260506094516 51 0.0 0.0 0.00 0.29 0.02 99 1007.7
20260506094036 51 0.0 0.9 0.00 0.29 0.02 99 1007.6
20260506093517 51 135 1.7 2.6 0.00 0.29 0.02 99 1007.6
20260506093057 51 0.0 1.7 0.00 0.29 0.02 99 1007.9
20260506092517 51 0.0 0.0 0.00 0.29 0.02 99 1007.7
20260506092016 51 0.0 0.0 0.00 0.29 0.02 99 1007.8
20260506091516 51 0.0 0.0 0.00 0.29 0.02 99 1007.7
20260506091016 51 0.0 0.0 0.00 0.29 0.02 99 1007.7
20260506090516 51 135 0.9 2.6 0.00 0.29 0.02 99 1007.9
20260506090016 51 0.0 1.7 0.00 0.29 0.02 98 1007.8
20260506085516 51 0.0 0.0 0.00 0.29 0.02 98 1008.0
20260506085016 51 0.0 0.9 0.00 0.29 0.02 98 1008.1
20260506084516 51 0.0 1.7 0.00 0.29 0.02 98 1008.2
20260506084016 51 0.0 1.7 0.00 0.29 0.02 98 1008.2
20260506083516 51 0.0 1.7 0.00 0.29 0.02 98 1008.2
20260506083016 52 0.0 0.0 0.00 0.29 0.02 98 1008.2
20260506082536 52 0.0 0.0 0.00 0.29 0.02 98 1008.0
20260506082016 52 0.0 1.7 0.00 0.29 0.02 98 1008.4
20260506081516 52 135 0.9 2.6 0.00 0.29 0.02 98 1008.5
20260506081016 52 0.0 2.6 0.00 0.29 0.02 98 1008.9
20260506080516 52 135 0.9 2.6 0.00 0.29 0.02 98 1009.1
20260506073516 53 0.0 0.9 0.00 0.29 0.02 98 1009.3
20260506073016 53 135 0.9 1.7 0.00 0.29 0.02 98 1009.1
20260506072516 54 0.0 0.0 0.00 0.29 0.02 98 1009.2
20260506072016 54 135 0.9 2.6 0.00 0.29 0.02 98 1009.1
20260506071516 54 135 0.9 1.7 0.00 0.29 0.02 98 1009.2
20260506071016 54 0.0 0.0 0.00 0.29 0.02 98 1009.2
20260506070516 54 0.0 0.0 0.00 0.29 0.02 98 1009.3
20260506062516 55 0.0 0.0 0.01 0.29 0.02 98 1009.6
20260506062016 55 0.0 0.9 0.01 0.29 0.02 98 1009.7
20260506061536 55 135 0.9 2.6 0.01 0.29 0.02 98 1009.6
20260506061016 55 135 0.9 2.6 0.01 0.29 0.02 98 1009.5
20260506060516 55 0.0 1.7 0.01 0.29 0.02 97 1009.6
20260506051016 57 0.0 0.0 0.01 0.28 0.01 97 1010.5
20260506050516 57 0.0 0.0 0.01 0.28 0.01 97 1010.4
20260506045016 57 135 0.9 2.6 0.00 0.27 0.00 97 1010.2
20260506044516 57 0.0 0.9 0.00 0.27 0.00 96 1010.2
20260506044016 57 0.0 1.7 0.00 0.27 0.00 96 1009.8
20260506043517 57 0.0 1.7 0.00 0.27 0.00 96 1009.8
20260506043036 57 0.0 0.9 0.00 0.27 0.00 96 1009.7
20260506042516 57 270 0.9 2.6 0.00 0.27 0.00 96 1009.7
20260506042016 56 0.0 1.7 0.00 0.27 0.00 96 1009.8
20260506041516 57 180 0.9 2.6 0.00 0.27 0.00 96 1009.7
20260506041016 57 0.0 2.6 0.00 0.27 0.00 95 1009.7
20260506040516 57 180 0.9 2.6 0.00 0.27 0.00 95 1009.8
20260506040016 57 0.0 1.7 0.00 0.27 0.27 95 1009.6
20260506035516 57 0.0 2.6 0.00 0.27 0.27 95 1009.8
20260506035016 57 0.0 2.6 0.00 0.27 0.27 94 1009.7
20260506034536 58 0.0 1.7 0.00 0.27 0.27 94 1009.6
20260506034016 58 0.0 3.5 0.00 0.27 0.27 93 1009.5
20260506033516 58 225 0.9 2.6 0.00 0.27 0.27 93 1009.5
20260506033016 58 180 0.9 3.5 0.00 0.27 0.27 93 1009.5
20260506032516 58 0.0 1.7 0.00 0.27 0.27 92 1009.4
20260506032016 58 180 0.9 4.3 0.00 0.27 0.27 91 1009.3
20260506031516 58 158 0.9 3.5 0.00 0.27 0.27 92 1009.3
20260506031016 58 158 0.9 2.6 0.00 0.27 0.27 91 1009.1
20260506030536 58 158 0.9 1.7 0.00 0.27 0.27 92 1009.2
20260506030016 58 158 0.9 2.6 0.00 0.27 0.27 91 1008.9
20260506025516 58 135 0.9 3.5 0.00 0.27 0.27 91 1009.1
20260506025017 58 0.0 2.6 0.00 0.27 0.27 91 1009.0
20260506024516 58 135 1.7 4.3 0.00 0.27 0.27 91 1009.1
20260506024016 58 158 0.9 2.6 0.00 0.27 0.27 91 1009.1
20260506023516 58 158 0.9 3.5 0.00 0.27 0.27 91 1009.0
20260506023016 58 158 0.9 4.3 0.00 0.27 0.27 91 1009.1
20260506022516 58 0.0 2.6 0.00 0.27 0.27 91 1009.1
20260506022036 59 135 0.9 4.3 0.00 0.27 0.27 90 1009.0
20260506021536 59 135 0.9 1.7 0.00 0.27 0.27 90 1009.1
20260506021016 60 0.0 3.5 0.00 0.27 0.27 88 1008.9
20260506020516 60 0.0 1.7 0.00 0.27 0.27 87 1009.0
20260506020016 60 113 0.9 4.3 0.00 0.27 0.27 87 1009.0
20260506015536 60 23 1.7 7.8 0.00 0.27 0.27 84 1009.0
20260506015016 59 135 0.9 3.5 0.00 0.27 0.27 85 1008.9
20260506014516 59 248 0.9 4.3 0.00 0.27 0.27 86 1008.9
20260506014016 59 203 0.9 1.7 0.00 0.27 0.27 88 1008.9
20260506013516 59 203 0.9 3.5 0.00 0.27 0.27 89 1008.9
20260506013016 58 203 0.9 1.7 0.00 0.27 0.27 89 1008.7
20260506012516 58 158 0.9 7.0 0.00 0.27 0.27 89 1008.7
20260506012016 57 248 0.9 2.6 0.00 0.27 0.27 91 1008.4
20260506011516 57 135 0.9 4.3 0.00 0.27 0.27 92 1008.5
20260506011016 56 180 1.7 6.1 0.00 0.27 0.27 93 1008.4
20260506010516 56 158 0.9 4.3 0.00 0.27 0.27 94 1008.1
20260506010016 56 158 1.7 5.2 0.00 0.27 0.27 94 1008.0
20260506005536 56 158 0.9 4.3 0.00 0.27 0.27 94 1007.9
20260506005016 56 225 0.9 1.7 0.00 0.27 0.27 94 1007.8
20260506004516 56 225 0.9 3.5 0.00 0.27 0.27 94 1007.9
20260506004016 56 225 0.9 3.5 0.00 0.27 0.27 94 1007.8
20260506003516 56 0.0 1.7 0.00 0.27 0.27 94 1007.9
20260506003015 57 0.0 1.7 0.00 0.27 0.27 94 1007.8
20260506002516 57 180 0.9 1.7 0.00 0.27 0.27 93 1007.8
20260506002016 57 180 0.9 4.3 0.00 0.27 0.27 93 1007.7
20260506001536 58 0.0 3.5 0.00 0.27 0.27 94 1007.8
20260506001016 58 0.0 2.6 0.00 0.27 0.27 93 1007.8
20260506000516 58 270 0.9 2.6 0.00 0.27 0.27 93 1007.6
20260506000015 58 158 1.7 6.1 0.00 0.27 0.27 94 1007.5
20260505235515 58 135 0.9 3.5 0.00 0.27 0.27 94 1007.4
20260505235016 58 135 0.9 2.6 0.00 0.27 0.27 94 1007.5
20260505234536 58 0.0 1.7 0.00 0.27 0.27 94 1007.7
20260505234016 59 135 0.9 3.5 0.00 0.27 0.27 93 1007.7
20260505233536 59 0.0 1.7 0.00 0.27 0.27 92 1007.5
20260505233016 59 135 0.9 3.5 0.00 0.27 0.27 92 1007.4
20260505232516 60 0.0 0.0 0.00 0.27 0.27 90 1007.5
20260505232016 60 0.0 0.9 0.00 0.27 0.27 89 1007.6
20260505231515 60 270 0.9 4.3 0.00 0.27 0.27 88 1007.6
20260505231015 60 135 0.9 3.5 0.00 0.27 0.27 85 1007.8
20260505230516 60 158 0.9 3.5 0.00 0.27 0.27 86 1007.8
20260505230015 60 315 0.9 4.3 0.00 0.27 0.27 87 1007.9
20260505225516 60 315 1.7 7.8 0.00 0.27 0.27 85 1007.9
20260505225015 60 203 1.7 4.3 0.00 0.27 0.27 89 1007.7
20260505224516 60 293 1.7 6.1 0.00 0.27 0.27 90 1007.7
20260505224016 60 158 1.7 4.3 0.00 0.27 0.27 91 1007.5
20260505223515 60 158 0.9 2.6 0.00 0.27 0.27 94 1007.4
20260505223016 60 158 0.9 2.6 0.00 0.27 0.27 94 1007.4
20260505222535 61 158 0.9 2.6 0.00 0.27 0.27 93 1007.3
20260505222016 61 158 0.9 2.6 0.00 0.27 0.27 92 1007.2
20260505221515 61 158 0.9 2.6 0.00 0.27 0.27 91 1006.9
20260505221015 61 270 0.9 3.5 0.00 0.27 0.27 90 1006.9
20260505220515 61 270 0.9 4.3 0.00 0.27 0.27 90 1007.1
20260505220015 61 270 1.7 5.2 0.01 0.27 0.27 88 1007.3
20260505215535 61 315 1.7 8.7 0.01 0.27 0.27 90 1007.4
20260505215035 61 23 0.9 2.6 0.01 0.27 0.27 92 1007.3
20260505214516 61 270 0.9 3.5 0.01 0.27 0.27 91 1007.2
20260505214015 61 203 0.9 8.7 0.01 0.27 0.27 91 1006.9
20260505213515 61 180 0.9 11.3 0.01 0.27 0.27 91 1006.9
20260505213015 62 158 0.9 2.6 0.01 0.27 0.27 94 1006.7
20260505212516 62 0.0 0.9 0.02 0.27 0.27 93 1006.7
20260505212018 63 0.0 0.0 0.03 0.27 0.27 91 1006.6
20260505211535 63 0.0 0.0 0.11 0.27 0.27 92 1006.3
20260505211017 63 0.0 0.9 0.26 0.27 0.27 91 1006.0
20260505210537 63 0.0 0.9 0.27 0.27 0.27 95 1006.2
20260505210017 62 0.0 1.7 0.26 0.26 0.26 92 1006.2
20260505205517 62 0.0 0.9 0.26 0.26 0.26 94 1006.2
20260505205017 62 0.0 0.9 0.26 0.26 0.26 92 1006.2
20260505204517 62 0.0 0.9 0.26 0.26 0.26 95 1006.1
20260505204058 61 158 0.9 2.6 0.26 0.26 0.26 94 1005.9
20260505203537 60 158 1.7 7.0 0.26 0.26 0.26 93 1005.8
20260505203038 60 158 2.6 7.8 0.26 0.26 0.26 91 1005.9
20260505202538 60 225 1.7 8.7 0.25 0.25 0.25 88 1005.5